Temp
6 6 6 7 7 8 8 8 8 8 8 9 9 9 9 9 9 9 9 9 10 10 10 11 11 11 11 11 11 11 11 12 12 12 12 12 12 12 12 12 12 12 12 11 11 11 11 11 11 11 11 11 11 11 11 11 11 11 12 12 12 12 11 11 10 10 10 10 10
6 6 6 7 7 8 8 8 8 8 8 9 9 9 9 9 9 9 9 10 10 10 11 11 11 11 11 11 11 11 12 12 12 12 12 11 11 11 11 11 11 11 11 11 11 11 11 11 11 11 11 11 10 10 11 11 11 11 11 11 11 11 11 11 11 10 10 10 10
6 6 6 7 7 8 8 8 8 8 8 9 9 9 9 9 9 10 10 10 10 10 11 11 11 11 11 11 11 12 12 12 12 11 11 11 11 11 11 11 11 11 11 11 11 11 11 11 11 11 11 10 10 10 11 11 11 11 11 11 11 11 11 10 10 10 10 10 10
6 6 6 7 7 7 7 8 8 8 9 9 9 10 10 10 10 10 10 10 10 10 11 11 11 11 11 11 11 12 12 12 11 11 11 11 11 11 11 11 11 11 11 11 11 11 11 11 11 11 11 10 10 10 10 10 10 10 10 11 11 11 10 10 10 10 10 10 10
6 6 6 7 7 7 8 8 8 8 9 9 9 10 10 10 10 10 10 10 10 10 10 11 11 11 11 11 11 12 12 11 11 11 11 11 11 11 11 11 11 11 11 11 11 11 11 11 11 10 10 10 10 10 10 10 10 10 10 10 10 10 10 10 10 9 10 10 11
6 6 7 7 7 7 8 8 9 9 9 9 9 10 10 10 10 10 10 10 10 10 10 11 11 11 11 11 11 12 11 11 11 11 11 11 11 11 11 11 11 11 11 11 11 11 11 11 10 10 10 10 10 10 10 10 10 10 10 10 9 9 9 9 9 9 10 10 11
6 6 7 7 7 8 8 9 9 9 9 9 10 10 10 10 10 10 10 10 10 10 10 10 11 11 11 11 11 11 11 11 11 11 11 11 11 11 11 11 11 11 11 11 11 11 11 10 10 10 10 10 10 10 10 10 10 10 9 9 9 9 9 9 10 10 10 10 10
6 7 7 7 7 8 9 9 9 9 9 9 10 10 10 10 10 10 10 10 10 10 10 10 11 11 11 11 11 11 11 11 11 11 11 11 11 11 11 11 11 11 11 11 11 10 10 10 10 10 10 10 9 9 9 10 10 10 9 9 9 9 9 10 10 10 10 10 10
7 7 7 7 8 8 9 9 9 9 9 10 10 10 10 10 10 10 10 10 10 10 10 10 11 11 11 11 11 11 11 11 10 10 11 11 11 11 11 11 10 10 10 10 10 10 10 10 10 10 10 10 9 9 9 10 10 10 9 9 8 9 9 10 10 10 9 9 9
7 7 7 8 8 8 9 9 9 9 10 10 10 10 10 11 11 11 11 10 10 10 10 11 11 11 11 11 11 11 11 10 10 10 10 10 10 10 10 10 10 10 10 10 10 10 10 10 10 10 9 10 9 9 9 10 10 10 9 9 9 9 10 10 10 9 9 9 9
7 7 8 8 8 8 9 9 9 9 10 10 10 10 10 11 11 11 11 10 10 10 11 11 11 11 11 11 11 11 10 10 10 10 10 10 10 10 10 10 10 10 10 10 10 10 10 10 10 10 9 9 9 10 10 10 10 9 9 9 9 9 10 10 9 9 8 9 10
7 8 8 8 8 8 9 9 9 10 10 10 10 10 10 11 11 11 10 10 10 11 11 11 11 11 11 11 11 10 10 10 10 10 10 10 10 10 10 10 10 10 10 10 10 10 10 10 10 10 9 9 9 9 9 9 9 9 9 9 9 10 10 10 9 8 9 9 11
8 8 8 8 8 9 9 9 9 9 10 10 10 10 10 11 11 10 10 10 10 11 11 11 11 11 11 11 10 10 10 10 10 10 10 10 10 10 10 10 10 10 10 10 10 10 10 10 10 10 9 9 9 9 9 9 9 9 9 9 9 9 9 9 9 8 9 10 12
8 8 8 8 9 9 9 9 9 9 9 10 10 10 10 10 10 10 10 10 10 11 11 11 11 11 11 10 10 10 10 10 10 10 10 10 10 10 10 10 10 10 10 10 10 10 10 10 10 10 10 9 9 9 9 9 9 9 10 10 9 9 9 9 8 9 10 11 12
8 9 9 9 9 9 9 9 9 9 10 10 10 10 10 10 10 10 10 10 10 11 11 11 11 11 10 10 10 10 10 10 10 10 10 10 10 10 10 9 9 9 9 9 10 10 10 10 10 10 10 10 9 9 9 9 9 9 10 9 9 9 8 8 9 10 11 12 12
9 9 9 9 9 9 9 9 9 9 10 10 10 10 10 10 10 10 10 10 11 11 11 11 10 10 10 10 10 10 10 10 10 10 10 10 10 9 9 9 9 9 9 9 10 10 10 10 10 10 10 10 9 9 9 9 9 9 9 9 9 9 8 8 10 11 12 13 13
8 8 9 9 9 9 9 9 9 9 10 10 10 10 10 10 10 10 10 10 10 10 10 10 10 10 10 10 10 10 10 10 10 10 10 9 9 9 9 9 9 9 9 10 10 10 10 10 10 10 10 9 9 9 9 9 9 9 9 9 9 8 8 9 10 12 13 13 13
8 8 8 8 9 9 9 10 10 10 10 10 10 10 10 10 10 10 10 10 11 11 10 10 10 10 10 10 10 10 10 10 10 10 10 9 9 9 9 9 9 9 9 9 10 9 9 9 9 9 9 9 9 9 9 9 9 9 9 9 8 8 8 9 11 12 13 13 13
9 8 8 8 8 9 9 10 10 10 10 10 10 10 10 10 10 10 10 10 11 11 11 10 10 10 10 10 10 10 10 10 10 10 9 9 9 9 9 9 9 9 9 9 10 10 9 9 9 9 9 9 9 9 9 9 9 9 9 8 8 8 9 10 12 12 13 13 13
8 8 8 8 8 8 9 9 10 10 10 10 10 10 10 10 10 10 10 10 11 11 10 10 10 10 10 10 10 10 10 10 10 9 9 9 9 9 9 9 9 9 9 9 9 9 9 9 9 9 9 9 9 9 9 9 9 8 8 7 8 8 10 11 12 12 12 13 13
8 8 8 8 8 8 9 9 10 10 10 10 10 10 10 10 10 10 10 10 10 10 10 10 10 10 10 10 10 10 10 10 9 9 9 9 9 9 9 9 9 9 9 9 9 9 9 9 9 9 9 9 9 9 9 8 8 7 7 8 8 9 10 11 12 12 12 13 13
8 8 8 8 8 8 9 10 10 10 10 10 10 10 10 10 10 10 10 10 10 10 10 10 10 10 10 10 10 10 10 9 9 9 9 9 9 9 9 9 9 9 9 9 9 9 9 9 9 9 9 9 9 9 8 8 7 7 8 8 9 10 10 11 11 12 12 12 13
8 8 8 8 8 9 9 10 10 10 10 10 10 10 10 10 10 10 10 10 10 10 10 10 10 10 10 10 10 10 9 9 9 9 9 9 9 9 9 9 9 9 9 9 9 9 9 9 9 9 10 9 9 9 8 8 8 8 9 9 10 10 10 11 11 12 12 12 12
8 8 8 8 9 9 10 10 10 10 10 10 10 10 10 10 10 10 10 10 10 10 10 10 10 10 10 10 10 10 9 9 9 9 9 9 9 9 9 9 9 9 9 9 9 9 9 9 9 9 9 9 9 9 9 8 8 9 9 10 11 11 10 11 11 11 11 11 11
8 8 8 9 10 10 10 10 10 10 10 10 10 10 10 10 10 10 10 10 10 10 10 10 10 10 10 9 9 9 9 9 9 9 9 9 9 9 9 9 9 9 9 9 9 9 10 10 10 10 10 10 9 9 9 8 8 9 10 11 11 11 11 11 11 11 11 10 10
8 9 9 10 10 10 10 10 10 10 10 10 10 10 10 10 10 10 10 10 10 10 10 10 10 9 9 9 9 9 9 9 9 9 9 9 9 9 9 9 9 9 9 9 9 10 10 10 10 10 10 10 9 9 8 8 8 10 11 12 12 11 11 11 10 10 10 9 9
9 10 10 10 10 10 10 10 10 10 10 10 10 10 10 10 10 10 10 10 10 10 9 9 9 9 9 9 9 9 9 9 9 9 9 9 9 9 9 9 9 9 9 10 10 10 10 10 11 10 10 10 9 8 8 8 9 11 11 12 11 11 11 11 10 9 9 9 9
10 10 10 10 10 10 10 10 10 10 10 10 10 10 10 10 10 10 10 10 9 9 9 9 9 9 9 9 9 9 9 9 9 9 9 9 9 9 9 9 9 10 10 10 10 10 10 10 10 10 10 9 8 8 8 9 10 11 11 11 11 11 11 10 10 9 9 9 9
10 10 10 10 10 10 10 10 10 10 10 10 10 10 10 10 10 10 10 9 9 9 9 9 9 9 9 9 9 9 9 9 9 9 9 9 9 9 9 9 9 10 10 9 9 9 9 9 9 9 9 9 9 9 9 10 11 11 11 11 10 10 10 10 9 9 9 9 9
10 10 10 10 10 10 10 10 10 10 10 10 10 10 10 10 10 10 9 9 9 9 9 9 9 9 8 8 8 8 8 8 8 9 9 9 9 9 9 9 9 9 8 8 8 8 8 9 9 9 9 9 9 10 10 11 11 11 10 10 10 10 10 10 9 9 9 9 9
10 10 10 10 10 10 10 10 10 10 10 10 10 10 10 10 9 9 9 9 9 9 9 9 9 8 8 8 8 8 8 8 8 8 8 8 8 8 8 8 8 8 8 8 8 8 8 8 8 9 9 9 10 10 10 10 10 10 10 10 10 10 10 9 9 9 9 9 10
10 10 10 10 10 10 10 10 10 10 10 10 10 10 10 9 9 9 9 9 9 9 9 9 9 8 8 8 8 8 8 8 8 8 8 8 8 8 8 8 7 7 7 8 8 8 8 8 8 9 9 9 10 10 10 10 10 10 10 10 10 9 9 9 9 9 9 9 9
10 10 10 10 10 10 10 10 10 10 10 10 10 9 9 9 9 9 9 9 9 9 9 8 8 8 8 8 8 8 8 8 8 7 7 7 7 7 7 7 7 7 7 8 8 8 8 8 8 8 9 9 10 10 10 10 10 9 9 9 9 9 8 8 9 9 9 9 9
10 10 10 10 10 10 10 10 10 10 10 10 9 9 9 9 9 9 9 9 9 9 8 8 8 8 8 8 8 8 7 7 7 7 7 7 7 7 7 7 7 7 7 8 8 8 8 8 8 8 9 9 10 10 10 10 9 9 9 8 8 8 8 8 8 8 8 8 8
10 10 10 10 10 10 10 10 10 10 9 9 9 9 9 9 9 9 9 8 8 8 8 8 8 8 8 8 8 8 7 7 7 7 7 7 7 7 7 7 7 7 7 8 8 8 9 9 9 9 10 10 10 10 10 10 9 8 8 8 7 7 7 7 8 8 8 8 7
10 10 10 10 10 10 10 9 9 9 9 9 9 9 9 9 8 8 8 8 8 8 8 8 8 8 8 7 7 7 7 7 7 7 7 8 8 7 7 6 7 7 8 8 9 9 9 9 10 10 11 10 10 10 9 9 8 8 7 7 7 7 7 7 7 7 7 7 6
10 10 10 9 9 9 9 9 9 9 9 9 9 8 8 8 8 8 8 8 8 8 8 8 8 8 7 7 7 7 7 7 7 7 7 8 8 7 7 6 6 7 7 8 8 9 9 9 10 10 11 11 10 10 9 9 8 7 7 7 6 6 6 6 6 6 6 6 6
9 9 9 9 9 9 9 9 9 9 9 9 8 8 8 8 8 8 8 8 8 8 8 7 7 7 7 7 7 7 7 7 7 7 7 7 7 7 6 6 6 6 7 7 8 9 9 9 10 10 11 11 10 10 9 8 8 7 7 6 6 6 6 6 5 5 5 5 5
9 9 9 9 9 9 9 9 9 9 8 8 8 8 8 8 8 8 8 8 8 8 7 7 7 7 7 7 7 6 6 7 7 7 7 7 7 7 6 6 6 6 7 8 8 9 9 9 10 10 11 11 11 10 9 8 7 7 6 6 6 5 5 5 5 5 5 5 5
9 9 9 9 9 9 8 8 8 8 8 8 8 8 8 8 7 7 7 7 7 7 7 7 7 6 6 6 6 6 6 6 6 7 7 7 7 7 7 7 7 7 7 8 8 9 9 9 9 10 10 10 10 10 9 8 7 6 6 5 5 5 4 4 4 4 4 4 5
9 9 8 8 8 8 8 8 8 8 8 8 8 8 7 7 7 7 7 7 7 7 7 6 6 6 6 6 6 6 6 6 6 6 7 7 7 7 7 7 7 7 7 7 8 8 8 9 9 10 10 10 10 9 9 8 7 6 5 4 4 4 4 4 4 4 4 4 5
Height
668 669 671 672 673 673 674 674 676 678 679 680 681 682 684 685 686 687 688 689 689 690 691 692 694 695 697 698 699 700 702 703 704 706 708 709 711 713 715 718 720 722 723 724 725 727 729 730 732 734 736 738 739 741 742 744 745 747 748 749 752 754 756 757 759 760 762 764 766
667 668 669 670 671 672 673 674 675 677 678 679 680 682 683 684 685 686 687 688 689 689 690 692 694 695 696 697 698 699 701 702 704 706 708 709 711 713 715 718 720 722 723 724 725 727 729 730 732 734 736 738 740 741 743 744 746 747 748 749 751 753 755 756 757 759 761 763 765
666 667 669 669 670 670 671 672 674 676 677 679 680 681 682 684 685 686 687 688 688 689 690 691 693 694 695 696 698 699 700 701 703 705 707 709 711 713 715 718 720 722 723 724 725 727 729 730 732 734 736 738 739 741 743 744 746 747 748 749 750 752 754 755 756 758 760 763 765
665 666 667 668 669 669 670 671 673 675 677 678 679 681 682 683 684 685 686 687 688 689 690 691 693 694 694 696 697 698 699 701 703 705 707 709 711 713 715 718 720 722 723 724 725 727 729 731 733 734 736 738 739 741 742 744 746 748 749 749 750 752 753 754 756 758 760 762 765
664 665 666 667 668 668 669 671 673 675 676 678 679 680 682 683 684 685 686 687 688 688 689 690 692 693 694 695 696 698 699 701 703 705 707 709 711 713 715 718 720 721 723 724 725 727 729 731 733 734 736 738 739 741 742 744 746 748 749 749 750 751 753 754 756 758 760 762 765
663 665 666 667 667 668 669 671 673 674 676 677 679 680 681 683 684 684 685 686 687 688 689 690 691 692 694 695 696 697 699 701 703 704 707 709 711 713 715 717 719 721 722 724 725 727 729 731 733 734 736 738 739 741 743 744 746 747 748 749 750 752 753 754 756 758 760 762 764
663 664 666 666 667 667 669 670 672 674 676 677 678 679 681 682 683 684 685 686 687 688 689 690 691 692 693 694 696 697 699 700 703 704 707 709 711 712 714 717 719 721 722 724 725 727 729 730 732 734 736 738 739 741 743 744 745 747 748 749 751 752 753 754 756 759 761 762 764
663 664 665 665 666 667 669 670 672 674 675 677 678 679 681 682 683 684 685 686 687 688 689 690 690 691 692 693 695 697 699 701 703 705 707 709 710 712 715 718 720 721 722 724 725 727 729 730 732 734 735 737 739 741 743 744 745 747 748 749 751 752 753 754 756 759 761 762 763
663 664 664 665 666 667 669 670 672 674 675 677 678 679 680 682 683 684 684 685 686 688 689 689 690 690 691 693 695 697 699 701 703 705 707 709 710 713 715 718 720 721 723 724 725 727 728 730 732 734 735 737 739 740 742 744 745 747 748 749 751 752 754 755 757 759 761 762 763
663 664 664 665 666 668 669 671 672 674 675 677 678 679 680 681 683 684 684 685 686 688 689 689 689 690 691 693 695 698 699 701 703 705 707 709 711 713 715 718 720 721 723 724 725 727 728 730 732 734 735 737 739 740 742 744 745 747 748 750 751 753 754 756 758 759 761 762 764
663 663 664 665 667 668 670 671 673 674 676 677 678 679 680 681 682 683 684 685 686 687 688 689 689 690 691 693 695 698 700 701 703 705 707 709 711 713 715 718 719 721 722 724 725 727 729 730 732 734 735 737 739 740 742 744 745 747 748 750 752 753 754 756 758 759 761 763 764
663 664 664 666 667 669 670 672 673 674 676 677 678 679 680 681 682 683 684 685 686 687 688 689 689 690 692 694 696 698 700 701 703 705 707 709 711 714 716 718 719 721 723 724 725 727 729 730 732 733 735 737 739 741 742 744 745 747 749 750 752 753 754 755 757 759 761 763 765
663 664 665 667 668 669 671 672 674 675 676 677 679 679 680 680 681 683 684 684 686 687 688 689 690 691 692 694 696 698 700 702 703 705 707 709 712 714 717 718 720 721 723 724 726 727 729 730 732 733 735 737 739 741 742 744 745 747 749 751 752 753 754 755 757 759 761 763 765
663 664 666 667 669 670 671 672 674 675 676 677 678 679 679 680 681 683 684 684 686 687 688 689 690 692 693 695 697 698 700 702 704 705 708 710 712 715 717 719 720 722 724 725 727 728 729 731 732 734 735 737 739 741 743 744 746 747 749 751 752 753 754 756 757 759 760 763 765
664 665 666 668 669 670 671 673 674 675 676 677 677 678 679 680 682 683 684 684 686 687 689 690 691 692 694 695 697 699 700 702 704 706 708 711 713 716 718 719 721 723 724 726 727 729 730 731 733 734 736 738 739 741 743 745 747 748 749 751 752 754 755 757 757 759 760 763 765
664 666 667 668 669 670 672 673 674 675 676 676 677 678 679 681 681 682 684 685 686 688 689 690 692 693 695 696 698 699 701 703 705 707 709 712 715 717 719 720 722 723 724 726 728 729 731 733 734 735 737 738 740 742 744 746 747 749 750 752 754 755 756 757 758 759 761 764 766
665 666 668 669 670 671 672 673 674 675 675 676 677 679 679 680 681 682 684 685 687 688 690 691 693 694 696 697 699 700 702 704 705 708 711 714 716 718 719 721 722 724 725 727 728 730 732 734 735 736 738 739 741 743 744 746 748 749 751 753 755 756 757 758 759 760 763 765 767
666 667 668 669 670 671 672 673 674 675 675 676 677 678 679 680 681 683 684 686 687 689 690 692 694 695 697 698 700 701 703 704 707 710 713 715 717 718 720 721 723 724 725 727 729 731 733 734 736 737 739 740 742 744 745 747 748 750 752 754 755 757 758 759 760 762 764 766 768
666 667 668 669 669 671 672 673 674 675 676 676 677 678 679 680 681 683 685 687 689 690 692 694 695 697 698 699 701 702 704 706 709 712 714 716 717 719 720 722 724 725 726 728 730 731 733 734 736 738 739 741 743 744 746 748 749 751 753 754 755 757 758 759 761 764 766 767 769
666 666 667 668 669 670 672 673 674 675 676 676 677 679 680 681 682 683 685 687 689 691 693 694 696 698 699 700 702 704 706 709 711 713 715 716 718 720 721 723 724 725 727 729 730 732 733 735 737 738 740 741 743 745 746 748 750 752 753 754 756 757 759 761 763 765 767 768 769
666 667 668 668 669 670 671 673 674 674 676 677 678 679 680 682 683 684 686 688 690 692 694 695 697 698 700 701 703 705 708 710 712 714 715 717 719 720 722 723 724 726 728 729 731 733 734 736 738 739 740 742 743 745 747 749 750 752 753 754 756 758 760 762 764 766 768 769 770
668 669 669 669 670 671 672 673 673 674 676 678 679 680 681 683 684 686 688 689 691 693 695 696 698 699 701 702 704 706 709 711 713 715 716 718 720 721 723 724 725 727 729 730 732 734 736 737 738 739 741 742 744 745 747 749 750 752 754 755 757 759 761 763 765 767 768 769 770
671 671 671 671 672 672 673 673 674 675 677 678 680 681 682 684 685 687 689 690 692 694 696 698 699 701 702 704 705 707 709 712 714 716 717 719 720 722 723 725 726 728 730 732 734 735 736 738 739 740 741 742 744 746 748 749 751 752 754 755 758 760 762 764 766 767 769 770 771
672 673 673 673 673 673 673 674 675 676 678 679 680 682 683 685 686 688 690 692 694 695 697 699 701 702 704 705 707 708 710 712 715 717 719 720 721 723 724 726 728 729 731 733 735 736 737 738 739 740 742 743 744 746 748 750 752 754 755 757 759 761 763 765 767 768 769 771 772
673 673 674 674 674 674 674 675 676 677 679 680 682 683 684 686 688 689 691 693 695 697 699 700 702 704 705 707 708 710 711 713 715 717 719 721 723 724 726 728 729 731 733 734 736 737 738 739 739 741 742 744 745 747 749 752 753 754 756 758 760 762 764 766 767 769 770 772 773
672 673 673 674 674 674 675 676 677 679 680 682 683 684 686 688 689 691 693 694 696 698 700 701 703 705 706 708 709 711 713 715 716 718 720 723 724 726 728 729 731 732 734 736 738 739 740 740 741 741 742 744 745 748 750 752 754 756 758 760 762 763 765 766 768 770 771 773 774
672 673 673 674 674 675 676 677 679 680 681 683 684 686 688 689 691 692 694 696 698 700 701 703 704 706 708 709 711 713 715 717 718 720 722 724 726 728 729 730 732 734 736 739 740 740 741 741 742 742 743 744 746 748 751 753 754 757 759 761 763 764 766 767 769 770 772 774 775
672 673 674 674 675 676 678 679 680 681 683 684 686 688 689 691 692 694 696 698 699 701 703 705 706 708 709 711 713 714 716 718 720 722 724 725 727 729 730 731 733 735 738 740 741 741 742 742 743 743 744 746 748 750 752 753 755 758 760 762 764 765 767 768 770 772 773 775 776
674 674 675 676 677 678 679 680 682 683 685 686 688 689 691 693 694 696 698 699 701 703 704 706 708 709 711 713 715 717 718 720 722 724 725 727 729 730 731 733 734 737 739 741 742 742 743 743 744 745 746 748 749 751 753 754 757 759 761 763 765 767 768 769 771 773 774 776 777
675 676 676 677 679 679 681 682 684 685 687 688 690 691 693 694 696 698 700 701 703 704 706 708 709 711 713 715 717 719 720 722 724 725 727 728 730 731 733 734 736 738 740 742 743 743 744 744 745 747 748 749 751 752 754 756 758 760 762 764 766 768 769 771 773 774 776 777 777
676 677 678 679 680 682 683 684 686 687 689 690 692 693 695 697 699 700 702 703 705 707 708 709 711 713 715 717 719 720 722 724 726 727 729 730 731 732 733 734 737 739 741 743 744 744 745 746 747 748 750 751 753 754 756 758 759 761 763 765 767 769 771 773 774 776 777 777 777
679 679 680 681 683 684 685 687 688 690 691 693 694 695 697 699 700 702 704 705 707 709 710 712 714 715 718 719 721 722 724 726 728 729 731 732 732 733 734 736 738 741 743 744 745 746 746 748 749 750 751 753 754 755 757 759 761 762 764 766 768 770 772 774 775 776 777 777 778
681 682 683 684 685 686 688 689 690 692 694 695 696 698 699 701 703 704 706 708 709 710 712 714 715 717 719 721 723 724 726 728 730 731 732 733 733 734 735 738 740 743 744 745 746 747 748 749 751 752 753 754 755 756 758 760 761 763 765 767 769 771 773 774 775 776 777 778 779
683 684 685 686 688 689 690 692 693 694 696 697 699 700 702 703 705 706 708 710 711 713 714 716 717 719 721 722 724 726 728 730 731 733 734 734 734 734 736 739 742 744 746 746 748 749 750 752 753 754 754 755 756 758 759 761 762 764 766 768 770 772 773 774 775 777 778 779 781
686 687 688 689 690 691 693 694 695 696 698 699 701 703 704 705 707 708 710 711 713 714 716 718 719 721 723 725 726 728 729 731 733 734 735 735 735 736 739 742 744 746 748 748 749 751 752 754 754 755 755 756 757 759 760 761 763 765 767 769 771 773 774 775 777 778 780 781 782
689 689 690 692 693 694 695 696 698 699 700 702 703 705 706 708 709 711 712 713 714 716 718 720 721 723 725 727 729 730 732 733 734 735 736 736 737 739 741 744 747 748 749 750 752 753 754 755 755 756 756 757 758 759 761 762 764 766 768 770 772 774 775 777 778 780 781 782 783
691 692 693 694 695 697 698 699 700 701 703 704 706 707 709 710 712 713 714 715 716 718 720 722 724 726 728 729 731 733 734 735 736 737 738 739 740 742 744 747 748 750 751 752 753 754 754 755 756 756 757 758 759 760 761 763 764 766 769 770 772 774 776 778 779 781 782 783 784
694 694 695 696 698 699 700 702 703 704 706 707 709 710 711 713 714 716 717 717 719 720 723 724 726 728 730 731 733 735 736 738 738 739 739 741 743 745 747 748 750 751 752 753 754 754 755 756 757 758 758 759 760 761 762 763 765 767 769 771 774 776 777 779 780 781 783 783 784
697 698 698 699 700 702 703 704 706 707 709 710 711 713 714 715 717 719 719 720 721 723 725 727 729 731 732 734 735 737 738 740 740 741 742 744 746 747 748 749 750 752 753 754 754 755 756 758 759 759 760 760 761 761 762 764 766 768 770 772 775 777 779 780 781 782 783 784 785
700 701 701 702 703 704 706 707 709 710 711 712 714 715 717 718 720 721 722 723 724 726 728 729 731 733 734 735 737 739 740 742 743 743 744 746 748 749 749 750 752 753 754 756 757 757 759 759 760 761 761 761 762 762 764 765 767 769 771 774 775 777 779 781 782 783 784 784 785
704 704 704 705 706 707 709 710 712 713 714 715 717 718 720 721 722 723 725 726 728 729 730 732 734 735 736 738 739 740 742 743 744 746 747 748 750 751 752 753 754 755 757 758 759 759 760 761 762 762 762 762 763 764 765 766 768 770 773 775 776 778 779 781 783 784 784 785 786
Wind_Speed
22 21 20 19 19 18 19 20 20 20 20 21 21 21 21 20 20 20 20 20 20 21 21 21 20 19 18 19 21 21 22 24 26 28 29 29 30 31 32 32 33 34 34 35 35 35 34 34 32 31 30 29 30 30 30 30 32 32 32 31 30 30 31 32 31 31 30 28 26
22 22 20 19 18 18 19 19 20 20 21 21 22 22 21 21 20 20 20 20 20 21 21 20 19 18 19 20 21 22 23 25 27 28 29 29 30 31 32 32 33 34 35 35 35 34 33 33 32 31 30 29 29 29 29 30 31 32 31 31 30 29 30 31 31 30 29 26 24
23 22 21 19 18 18 18 19 20 20 21 21 22 22 22 21 20 20 20 20 20 20 20 20 19 18 19 21 21 22 24 27 28 29 29 30 30 31 32 33 33 34 35 35 34 33 32 32 31 30 29 29 29 28 28 29 30 30 29 29 28 28 29 29 29 27 25 23 21
24 23 21 20 19 18 19 21 21 21 21 21 22 22 21 21 20 20 20 20 19 20 20 20 18 18 19 22 22 23 25 28 29 30 29 30 31 31 32 33 33 34 34 34 33 33 32 31 30 29 28 29 28 28 27 28 28 27 26 27 26 26 27 27 26 24 22 21 19
23 22 21 20 18 18 21 23 23 22 22 21 21 21 21 20 20 19 19 18 18 19 20 20 17 17 19 22 23 25 27 29 30 30 30 30 31 31 32 33 33 33 33 33 33 32 31 31 29 27 27 27 27 26 26 26 25 24 23 24 24 25 26 26 25 23 21 20 19
22 21 21 20 19 20 23 24 24 23 22 21 20 20 20 20 19 19 18 17 17 18 18 18 16 16 19 23 25 26 29 30 30 30 30 30 30 31 31 32 32 33 33 32 32 31 31 30 28 26 25 25 24 24 24 24 24 23 22 22 23 24 25 26 25 23 21 20 19
20 20 20 19 20 22 24 25 24 23 22 21 20 20 20 19 19 18 17 16 16 16 17 16 16 17 22 25 26 28 29 31 30 30 30 30 30 30 31 31 32 32 32 32 31 30 30 29 27 25 24 24 23 22 22 23 23 23 22 22 22 24 25 25 23 21 20 19 18
19 20 19 19 21 24 25 25 24 23 22 21 21 20 19 19 18 17 15 14 14 15 15 16 16 19 25 28 28 29 30 31 30 30 30 30 30 31 31 31 31 31 32 31 31 30 29 28 26 25 24 23 23 22 22 23 23 22 22 21 22 23 23 23 21 19 18 18 17
19 19 19 20 23 24 24 24 24 22 21 21 20 20 19 18 17 15 14 14 14 14 15 15 17 22 29 31 30 29 29 30 30 30 30 31 31 31 31 31 31 31 30 31 30 30 28 27 25 24 23 23 23 23 22 22 23 22 22 21 21 21 21 20 18 17 17 17 16
18 18 19 21 23 23 22 23 22 21 21 20 20 19 18 17 16 15 15 14 14 14 15 16 20 27 32 32 31 30 29 30 30 30 31 31 32 32 31 31 31 30 29 30 29 29 28 26 24 23 23 23 23 23 22 22 22 22 21 21 21 21 20 18 16 16 16 17 17
19 19 20 21 21 21 21 21 20 20 20 20 19 18 17 17 16 16 16 15 15 15 15 19 24 30 32 31 30 30 29 30 30 30 31 31 31 31 31 30 30 29 29 29 28 28 27 25 24 23 23 22 22 22 22 22 22 22 22 21 21 21 19 17 16 16 17 18 18
19 20 20 20 20 20 20 19 19 19 19 19 18 18 18 18 18 17 17 16 16 16 18 22 28 31 32 30 30 30 30 30 30 30 30 31 31 30 30 29 29 29 28 28 28 27 26 25 25 24 23 22 22 22 22 22 22 22 21 21 21 20 19 18 17 17 18 19 19
20 20 19 19 19 19 19 18 18 18 19 19 19 19 19 19 18 17 16 17 17 19 21 26 29 31 30 29 29 29 30 30 30 30 30 30 30 29 28 28 28 28 27 27 26 26 26 25 25 24 23 23 22 22 22 22 22 22 22 21 20 19 19 19 19 20 20 20 18
20 19 19 19 19 19 18 18 18 18 19 20 21 20 19 18 17 16 16 19 21 23 24 27 28 29 30 29 29 29 30 30 30 30 30 30 29 28 27 27 27 27 26 25 25 25 25 25 24 24 23 22 22 22 22 21 21 22 22 22 20 19 19 20 21 22 21 19 17
20 20 20 19 19 19 18 18 18 19 20 21 21 20 19 17 17 16 18 22 25 26 26 26 26 27 29 29 30 30 30 30 30 29 29 29 28 27 26 26 26 26 25 24 24 24 24 24 23 23 23 22 22 22 21 21 21 22 21 21 20 19 20 21 22 22 20 18 16
19 19 19 19 19 18 18 18 18 19 20 20 20 19 17 16 16 17 21 24 26 26 26 26 26 26 28 29 30 30 30 29 29 28 28 28 27 26 26 26 26 25 25 24 23 23 22 22 22 22 22 22 22 22 21 21 22 21 20 19 18 19 20 21 21 19 18 16 15
18 17 17 17 16 16 18 18 18 18 19 19 18 17 15 14 16 20 24 26 26 25 25 26 26 26 27 28 29 29 29 28 28 27 27 27 27 26 26 26 26 25 25 24 23 22 22 21 21 21 21 21 21 22 22 22 21 20 19 17 17 18 19 19 18 17 16 15 14
14 13 13 13 12 13 15 16 17 18 18 18 16 15 15 15 19 24 26 27 27 26 25 26 26 26 27 27 27 27 27 27 27 26 26 27 26 26 26 26 25 25 24 24 23 23 22 21 20 20 20 20 21 21 21 21 20 18 17 17 18 18 18 18 16 15 15 14 13
10 9 8 8 8 9 10 12 14 16 17 17 16 15 15 18 23 26 28 28 28 27 26 26 26 26 26 27 27 26 26 27 27 26 26 26 26 26 26 25 25 24 24 23 23 22 22 21 20 20 20 21 21 21 20 19 18 17 17 17 18 18 17 16 16 15 14 14 13
5 5 6 6 5 4 6 10 13 16 18 18 17 17 18 21 25 28 28 29 29 28 28 27 27 26 26 27 27 27 26 27 27 27 27 27 26 26 26 25 25 24 23 23 22 22 21 21 21 21 22 22 22 21 20 19 18 17 18 18 18 17 16 16 15 15 14 14 13
1 3 4 5 4 2 3 9 15 19 20 20 19 20 22 25 27 28 29 29 29 29 28 28 28 28 27 27 27 27 27 27 27 27 27 26 26 26 26 25 25 24 23 22 22 22 22 22 23 23 23 23 22 21 20 19 18 18 18 18 17 16 16 16 16 15 15 14 13
2 5 6 7 6 5 4 12 19 23 23 22 22 24 26 27 29 29 29 30 30 29 29 29 29 29 28 28 28 28 27 27 27 26 26 26 25 25 25 25 24 24 23 23 23 24 24 24 24 24 23 23 22 21 20 19 19 19 19 18 17 16 16 16 16 16 15 14 13
8 9 11 11 10 7 9 19 23 25 25 25 26 27 28 29 30 30 30 30 30 30 29 29 29 29 29 29 29 28 28 28 26 26 25 25 25 25 24 24 24 24 25 25 25 26 26 26 25 24 23 22 21 20 19 18 19 19 19 18 17 17 17 17 16 16 15 14 13
12 13 14 14 10 11 19 24 26 26 27 27 28 29 29 30 31 31 31 30 30 29 28 29 29 29 29 29 29 29 29 28 27 26 26 26 26 25 25 25 25 25 26 26 26 26 26 26 25 24 23 22 21 19 18 18 18 18 18 17 17 17 17 17 16 15 14 14 14
16 16 15 13 14 20 24 26 27 27 28 28 29 29 30 30 31 31 31 30 30 29 29 29 30 29 29 29 28 29 29 29 28 27 27 27 27 26 26 26 26 26 26 25 25 25 25 26 26 25 24 23 22 20 19 19 19 18 17 17 17 17 17 17 15 15 15 15 15
16 14 14 17 21 24 25 26 27 28 28 29 29 29 30 30 31 31 30 30 30 30 30 29 29 29 29 29 28 28 28 28 28 28 28 28 27 27 26 26 26 26 25 24 23 23 24 25 25 25 25 24 23 22 21 21 20 18 17 16 16 17 17 16 16 16 16 16 16
15 17 20 23 24 25 26 27 28 28 29 29 29 29 29 30 30 30 30 30 30 30 30 30 29 29 29 28 29 28 28 28 28 29 29 28 28 27 27 27 27 27 25 23 22 22 22 23 23 24 24 24 23 23 23 22 21 19 17 16 16 17 17 17 17 18 17 17 15
20 22 23 24 25 25 26 27 28 28 28 28 29 29 30 30 30 30 30 30 30 30 29 28 28 28 28 28 28 28 28 28 28 29 29 29 29 29 29 29 28 27 25 23 21 21 21 21 21 21 21 22 22 22 22 22 20 18 17 17 17 17 17 18 19 19 18 17 15
22 23 24 24 25 26 26 27 27 28 28 29 29 30 30 30 30 30 30 29 29 28 27 27 27 27 27 28 28 29 29 29 29 29 29 29 29 29 29 29 28 26 23 21 20 20 20 19 19 19 20 21 22 22 21 20 19 19 18 18 18 18 18 19 20 20 18 17 15
23 24 24 25 25 26 26 27 27 28 28 29 29 30 30 30 29 29 29 28 27 27 27 28 28 28 29 29 29 29 28 28 29 29 29 29 29 29 29 28 27 24 22 20 19 19 19 19 19 20 20 21 21 21 20 20 19 19 19 19 18 19 19 20 20 19 17 15 14
23 24 25 25 26 26 27 27 28 28 28 29 29 29 29 29 28 28 28 28 28 28 29 30 30 30 30 30 29 29 28 28 28 28 28 28 28 28 28 27 25 22 20 19 19 19 20 20 20 20 20 21 21 21 20 20 20 20 20 19 19 19 20 20 19 18 16 14 13
24 24 25 26 26 26 27 28 28 28 29 29 29 29 28 28 28 28 29 29 30 31 31 31 31 31 30 30 29 29 29 28 28 27 27 28 28 28 27 26 24 22 20 19 19 20 20 20 20 21 21 21 21 21 21 21 21 21 20 20 20 21 21 21 19 18 16 14 12
24 25 26 26 26 27 27 28 28 29 29 29 28 28 28 29 29 29 30 30 31 31 31 31 31 30 30 30 30 29 29 28 27 27 27 28 28 28 28 26 23 21 20 20 20 20 20 20 21 21 21 21 21 21 21 21 22 22 22 22 21 22 21 21 19 17 14 12 11
25 26 26 27 27 27 28 28 28 29 29 28 28 29 29 29 29 29 29 29 30 30 30 30 30 30 30 30 30 30 29 28 27 27 27 28 28 28 27 25 22 21 20 19 19 19 19 20 20 21 21 21 21 21 22 22 22 23 23 23 22 22 21 19 17 15 13 12 12
26 27 27 27 27 27 27 28 28 28 28 28 28 29 29 29 29 29 29 30 30 30 30 30 30 30 30 30 30 29 29 28 27 27 27 27 27 27 26 24 22 19 18 18 18 18 18 19 19 20 20 21 21 22 22 22 23 23 23 23 22 20 19 17 15 14 14 13 12
28 28 27 27 27 27 28 28 28 28 28 28 28 28 29 29 29 30 31 31 31 31 30 30 30 30 30 29 29 28 28 28 27 26 26 25 26 26 25 23 21 19 17 17 17 17 18 18 19 19 20 21 21 22 22 23 23 23 23 22 21 19 17 16 16 15 14 13 12
28 28 28 28 27 27 28 28 28 28 28 28 28 29 29 29 29 30 31 32 32 31 30 30 30 30 29 28 28 28 27 27 27 27 26 25 25 24 24 22 20 18 17 17 18 18 18 18 19 19 19 20 20 21 22 22 23 23 22 21 20 18 17 16 16 15 14 12 11
27 28 29 28 28 28 28 29 29 28 28 28 28 28 29 29 29 29 30 32 32 31 31 30 29 29 28 28 28 28 27 27 27 27 26 25 24 23 22 21 19 18 17 18 19 19 19 18 18 17 17 18 18 19 20 21 22 22 21 21 19 18 17 17 16 15 14 13 12
28 29 29 30 29 29 29 29 29 29 29 28 28 29 29 28 28 29 30 31 32 32 31 30 29 28 28 28 28 28 27 26 26 26 27 26 24 23 22 21 19 18 17 18 19 19 18 17 16 15 14 15 16 17 19 21 21 22 21 21 20 19 17 16 16 15 15 14 13
28 29 30 30 30 30 29 29 29 29 29 30 29 29 29 29 29 30 31 31 31 31 30 29 28 28 28 28 28 27 27 26 26 26 26 25 23 22 21 21 20 19 18 18 17 17 16 14 13 12 12 12 14 16 18 20 21 22 22 21 20 20 18 17 16 16 15 15 13
29 30 30 30 30 30 30 30 29 30 30 30 30 30 30 30 31 31 31 30 30 29 29 28 28 28 28 28 27 27 27 27 26 25 25 24 23 22 22 22 21 20 18 17 15 14 13 12 11 10 10 11 12 14 17 19 21 23 23 21 21 20 19 18 17 16 16 15 14
Wind_Direction
208 208 209 210 213 212 206 198 195 194 194 192 189 188 187 188 187 187 187 188 187 187 185 183 182 182 184 185 183 181 181 182 181 178 175 173 172 171 172 172 173 173 172 170 169 168 168 168 167 167 167 167 168 170 171 172 174 177 180 182 185 188 189 187 188 191 194 196 198
207 207 208 210 212 209 201 192 190 192 194 192 189 188 187 188 187 186 187 189 190 188 185 182 182 183 184 183 181 180 179 178 176 174 171 170 170 170 171 172 173 173 172 170 169 167 167 167 166 165 165 166 167 168 170 173 177 179 180 181 184 186 188 188 190 193 195 196 197
204 206 207 210 211 204 193 184 186 189 192 191 190 188 187 187 187 187 188 190 191 189 186 183 183 185 184 180 179 177 176 174 172 169 168 168 168 169 170 171 173 173 172 170 168 167 166 166 166 165 165 166 168 169 172 175 179 180 179 180 184 186 186 186 188 190 192 192 193
202 204 207 210 211 199 185 180 182 186 189 190 189 188 187 187 187 187 189 191 191 190 187 186 188 186 181 177 175 174 173 171 168 166 165 166 166 168 169 172 172 172 171 169 168 167 166 166 165 166 167 168 169 171 174 177 178 178 177 179 183 184 182 182 183 184 183 184 188
200 203 207 211 208 192 181 179 182 185 187 188 187 185 185 185 186 187 189 191 192 191 190 190 194 187 178 173 171 171 169 167 165 164 164 164 165 167 169 171 171 171 170 169 167 167 166 166 165 166 167 169 171 172 174 175 175 174 175 177 180 180 179 178 177 177 177 180 187
198 202 208 211 201 185 178 180 182 184 186 186 184 182 182 183 184 185 188 191 193 193 193 196 200 188 174 169 169 167 164 162 162 163 163 164 165 167 168 170 171 171 170 169 168 167 167 166 165 165 166 168 169 172 173 173 172 172 172 173 175 177 176 174 174 174 176 180 186
196 202 207 206 190 179 177 181 182 184 185 184 182 180 180 181 183 186 189 193 195 195 197 202 205 186 168 163 164 162 159 158 159 161 162 163 165 167 168 170 171 170 170 169 169 168 168 167 165 163 164 166 167 170 172 173 173 172 171 170 172 174 173 172 173 174 177 180 183
195 202 203 194 181 177 178 180 181 182 183 181 180 179 180 182 184 187 191 195 197 198 201 207 202 179 163 160 161 159 157 156 157 159 161 163 165 166 168 170 171 170 170 170 170 169 169 168 166 163 163 164 166 168 172 174 175 175 173 171 172 173 173 171 171 173 176 178 179
194 199 195 182 177 177 179 180 180 181 181 179 178 179 181 183 185 188 192 195 197 199 203 205 189 168 159 159 160 158 156 156 156 157 160 163 164 166 168 169 170 169 170 170 170 170 169 168 166 165 165 166 166 168 172 176 177 177 176 173 171 170 170 170 169 171 174 176 178
192 190 182 175 175 176 178 178 180 180 180 177 177 178 180 183 186 190 193 196 195 198 199 192 171 159 156 158 159 158 157 157 157 158 161 163 164 166 167 168 168 168 168 169 170 170 169 167 165 164 165 167 168 169 173 177 179 179 176 173 169 166 165 165 165 168 173 178 182
184 179 173 172 173 174 174 175 176 178 177 176 175 176 180 183 188 192 195 195 193 191 186 173 159 153 153 155 157 158 158 159 159 160 161 163 164 166 167 167 167 167 167 168 169 169 168 167 165 164 164 166 168 170 173 178 180 178 174 170 167 164 161 159 162 168 176 182 186
174 170 167 167 168 169 170 170 171 173 174 174 175 178 182 186 192 195 193 185 181 177 170 160 155 153 152 153 156 158 159 159 160 160 161 162 163 165 165 166 166 166 166 166 167 167 167 167 166 164 163 165 168 171 174 177 177 174 170 167 165 162 158 158 163 171 178 184 187
163 161 161 161 162 164 165 166 167 170 174 177 180 182 186 191 196 196 185 170 166 163 159 154 153 153 153 153 155 157 158 159 159 159 160 160 161 162 162 162 162 162 162 163 165 166 166 167 167 166 164 165 167 171 174 174 173 170 167 166 164 161 160 162 168 174 179 184 185
152 153 155 157 159 161 163 165 168 172 178 183 186 187 189 195 201 195 176 158 158 156 153 150 150 152 153 154 155 156 157 157 157 157 157 157 158 158 158 158 158 158 158 159 162 165 166 167 168 168 168 167 167 170 171 171 171 170 169 166 164 163 165 170 174 176 177 179 180
148 152 156 158 160 162 165 168 173 178 185 189 190 188 190 196 200 186 164 152 152 151 149 147 146 147 151 153 154 154 154 154 154 153 152 153 155 155 154 154 154 154 154 156 159 163 166 167 169 170 170 169 168 167 167 168 170 171 170 167 164 166 171 175 176 174 173 173 176
147 151 154 156 161 166 171 174 179 184 189 192 190 187 188 194 186 168 154 150 149 148 145 143 141 142 146 150 152 152 151 151 150 149 149 150 152 152 152 152 152 152 154 155 158 161 164 167 169 170 170 168 166 165 165 166 168 169 168 166 166 171 176 177 174 170 168 170 172
142 141 142 148 158 168 175 180 184 188 191 192 188 185 184 180 163 153 149 149 147 144 141 140 140 141 143 145 148 149 148 146 146 146 148 149 150 150 150 151 152 154 155 157 157 158 160 163 166 167 166 165 163 163 164 165 165 165 164 165 170 176 178 175 170 166 165 168 167
144 140 138 140 146 159 171 181 184 187 190 191 186 181 174 160 148 145 146 149 147 143 140 140 141 142 142 142 144 145 144 143 144 146 147 149 149 150 151 152 154 156 156 156 157 157 158 159 159 160 160 160 160 160 161 161 160 161 163 168 174 177 175 170 165 163 164 164 159
156 158 155 146 140 143 157 172 179 182 184 185 180 173 161 147 141 140 142 145 146 145 143 142 142 142 141 140 140 140 141 143 144 146 147 148 149 150 151 152 154 155 155 155 157 158 158 158 157 157 156 156 156 156 155 155 157 160 166 171 173 171 168 164 162 162 162 159 152
163 176 175 165 155 145 153 167 170 171 172 173 168 160 149 139 136 136 138 141 145 146 145 143 141 139 138 138 137 137 139 143 144 144 145 146 147 148 150 150 151 152 153 154 156 156 156 156 156 155 154 152 151 151 152 153 157 162 166 167 166 164 162 161 161 160 159 154 150
154 197 206 204 199 210 190 168 158 156 157 158 153 145 138 134 135 136 138 141 143 143 142 140 139 137 137 136 135 135 138 141 142 142 142 144 145 146 147 148 149 149 150 152 152 152 153 153 153 152 150 149 149 149 151 154 158 161 162 160 158 158 159 160 160 159 157 155 154
197 212 221 229 239 249 202 152 143 143 146 146 141 135 133 133 135 137 138 139 139 138 137 137 137 137 137 137 136 135 136 138 139 139 140 140 140 142 144 145 146 146 147 148 148 149 150 150 148 147 145 145 146 148 151 154 156 157 157 155 154 155 158 159 159 158 157 157 155
203 209 219 229 245 228 160 138 135 136 137 136 133 131 132 133 135 136 136 135 134 134 134 134 136 137 138 138 137 135 134 134 134 135 136 135 135 137 139 142 143 143 143 144 146 147 147 146 144 141 140 140 142 145 149 153 155 156 154 153 153 156 158 159 159 158 157 155 149
210 216 225 233 221 165 137 132 131 131 130 129 129 130 130 131 131 131 131 131 132 132 132 133 134 136 136 136 135 133 132 131 130 130 130 131 132 134 136 138 139 140 141 144 147 147 145 142 139 136 135 135 137 140 146 152 157 157 154 152 154 156 158 158 157 156 153 147 140
222 224 223 207 162 138 130 128 128 127 127 127 127 128 128 128 128 128 128 128 129 130 130 130 131 132 132 132 131 131 131 131 129 128 128 129 131 132 133 134 136 138 140 143 145 143 139 134 133 133 134 135 138 143 149 156 158 156 153 153 154 156 157 156 153 149 144 139 134
216 203 179 151 136 130 127 125 125 126 126 126 126 126 125 126 126 126 126 126 126 127 127 127 127 128 127 127 126 127 128 129 129 129 129 129 130 131 132 132 133 135 136 138 137 136 133 132 133 135 138 142 146 151 155 157 155 152 151 153 155 155 153 150 145 141 138 134 129
165 148 135 128 125 123 121 122 124 125 125 125 124 124 124 124 124 124 123 123 123 123 123 122 123 123 123 123 123 123 124 125 127 129 130 131 131 131 130 130 129 129 130 131 134 135 137 139 141 143 146 148 151 154 155 153 149 148 149 152 153 153 151 146 142 139 135 131 126
126 121 119 119 118 118 119 120 121 121 122 122 122 122 122 122 121 121 120 120 120 119 118 118 118 119 119 119 120 121 122 123 125 127 129 131 131 130 128 127 126 127 129 135 139 143 144 146 149 151 152 153 154 153 151 147 145 146 148 150 151 150 148 144 141 138 135 131 126
113 113 113 113 114 115 116 117 117 118 119 120 120 120 119 118 118 118 117 117 117 116 115 115 115 115 115 116 117 119 121 122 124 126 128 128 128 127 127 126 127 130 136 142 145 146 147 148 151 152 154 154 152 148 143 140 140 143 146 147 147 147 146 143 140 137 135 132 127
110 111 111 110 110 111 113 114 115 116 117 117 117 116 116 115 115 115 114 114 114 114 114 115 114 113 113 114 116 118 119 121 123 124 125 125 125 125 126 127 129 133 138 142 143 144 145 147 148 150 150 150 146 141 136 135 138 142 143 143 144 144 143 141 139 137 135 132 127
108 108 107 107 108 109 110 111 112 113 114 114 114 114 113 112 112 112 113 112 112 113 114 114 113 113 113 115 116 117 117 118 120 121 122 123 122 122 123 124 126 130 135 139 141 142 144 145 146 146 147 145 141 136 133 134 137 138 139 139 140 141 141 141 140 138 136 132 126
106 106 106 106 107 107 108 109 111 112 112 112 111 111 111 110 110 111 112 112 112 112 113 113 113 113 113 114 114 115 115 116 117 118 119 119 118 117 117 118 121 125 131 136 137 139 141 143 144 145 144 141 137 133 132 133 134 134 134 136 138 140 142 141 140 138 135 130 123
105 105 105 105 106 107 108 109 110 110 111 110 109 108 108 109 109 109 110 111 111 112 112 112 112 112 112 112 112 112 113 114 115 115 116 116 114 113 112 112 116 122 129 133 135 137 140 141 142 142 140 136 132 130 130 130 130 131 132 135 138 141 142 141 139 136 130 121 110
103 103 104 104 105 106 107 108 109 109 109 108 107 106 107 107 107 107 108 109 110 110 111 111 111 111 111 112 112 112 113 113 114 114 113 112 111 110 108 109 113 120 128 132 134 136 138 139 139 137 134 130 127 126 127 128 128 129 131 134 137 138 138 137 133 125 114 103 95
102 102 102 103 104 105 106 107 107 106 105 105 105 105 105 105 106 106 107 109 109 109 108 109 109 109 109 110 112 113 113 113 113 113 112 111 110 108 107 109 114 121 127 131 132 134 135 135 133 129 125 122 122 123 124 125 126 127 129 131 131 131 129 125 117 107 98 94 92
102 102 102 102 102 103 104 104 103 102 102 102 102 102 103 103 105 106 108 109 108 107 106 106 107 107 107 108 109 110 112 113 113 113 113 112 111 109 110 112 117 122 126 128 128 128 127 126 122 117 114 113 116 118 120 121 123 125 126 126 124 121 118 112 106 101 98 96 93
101 102 102 101 100 100 101 101 100 100 99 100 100 100 101 102 103 106 108 108 106 104 103 104 105 105 106 106 107 109 111 114 114 114 113 114 113 113 114 116 119 122 125 125 123 120 117 115 112 108 106 107 111 115 118 120 122 123 123 121 118 115 113 109 106 104 101 97 93
98 100 100 99 98 98 99 98 98 98 98 98 99 99 100 101 102 104 106 106 105 103 102 102 102 103 105 107 107 108 110 112 113 113 113 113 115 117 117 117 118 120 121 120 116 112 109 108 107 105 105 107 110 114 117 120 122 122 120 118 116 114 114 113 110 107 102 97 95
95 98 98 97 97 97 97 97 97 98 98 98 98 98 99 99 100 101 103 104 104 103 102 100 100 101 103 105 106 106 107 109 110 111 112 113 116 118 118 115 113 113 113 112 110 108 107 107 107 107 106 107 109 112 116 119 120 120 119 118 117 117 117 116 113 109 104 99 99
92 94 95 95 95 95 95 95 95 96 98 98 98 98 98 99 99 99 100 101 102 102 101 100 99 100 101 102 102 103 103 105 106 109 111 113 115 115 113 110 108 106 105 105 105 107 108 108 108 107 104 103 106 111 116 120 120 119 119 120 120 120 119 117 114 110 107 106 106
89 91 92 92 93 93 93 94 94 95 97 97 97 98 99 99 99 99 99 99 99 99 99 99 99 100 101 101 101 101 101 102 105 108 111 112 111 110 108 105 103 101 100 99 101 102 103 102 99 95 92 94 102 112 119 123 122 121 121 122 123 122 121 119 116 114 113 114 114